| time (UTC) | temp C | wind direction | speed KPH | gust KPH | rain 1hr cm | rain 24hr cm | rain mn cm | humidity % | barometer mb |
| 20260506193104 | 28 | 166 | 1.6 | 12.9 | 0.00 | 0.00 | 0.00 | 86 | 1008.9 |
| 20260506192606 | 28 | 143 | 3.2 | 12.9 | 0.00 | 0.00 | 0.00 | 86 | 1008.9 |
| 20260506192105 | 28 | 142 | 1.6 | 11.3 | 0.00 | 0.00 | 0.00 | 86 | 1009.0 |
| 20260506191605 | 28 | 105 | 1.6 | 8.0 | 0.00 | 0.00 | 0.00 | 86 | 1009.0 |
| 20260506191106 | 28 | 144 | 1.6 | 8.0 | 0.00 | 0.00 | 0.00 | 86 | 1009.1 |
| 20260506190604 | 28 | 142 | 1.6 | 9.7 | 0.00 | 0.00 | 0.00 | 88 | 1009.1 |
| 20260506190335 | 28 | 115 | 1.6 | 11.3 | 0.00 | 0.00 | 0.00 | 87 | 1009.3 |
| 20260506185601 | 28 | 143 | 0.0 | 11.3 | 0.00 | 0.00 | 0.00 | 87 | 1009.4 |
| 20260506185101 | 28 | 120 | 0.0 | 4.8 | 0.00 | 0.00 | 0.00 | 87 | 1009.3 |
| 20260506184554 | 28 | 70 | 0.0 | 3.2 | 0.00 | 0.00 | 0.00 | 88 | 1009.3 |
| 20260506184049 | 28 | 74 | 0.0 | 3.2 | 0.00 | 0.00 | 0.00 | 88 | 1009.4 |
| 20260506183550 | 28 | 74 | 1.6 | 4.8 | 0.00 | 0.00 | 0.00 | 88 | 1009.4 |
| 20260506183046 | 28 | 73 | 1.6 | 6.4 | 0.00 | 0.00 | 0.00 | 89 | 1009.5 |
| 20260506182546 | 28 | 96 | 1.6 | 6.4 | 0.00 | 0.00 | 0.00 | 89 | 1009.6 |
| 20260506182046 | 28 | 98 | 0.0 | 6.4 | 0.00 | 0.00 | 0.00 | 90 | 1009.7 |
| 20260506181548 | 27 | 126 | 0.0 | 3.2 | 0.00 | 0.00 | 0.00 | 91 | 1009.8 |
| 20260506181046 | 27 | 110 | 0.0 | 3.2 | 0.00 | 0.00 | 0.00 | 91 | 1009.9 |
| 20260506180545 | 27 | 108 | 0.0 | 3.2 | 0.00 | 0.00 | 0.00 | 91 | 1009.9 |
| 20260506180314 | 27 | 134 | 0.0 | 3.2 | 0.00 | 0.00 | 0.00 | 91 | 1010.0 |
| 20260506175544 | 27 | 136 | 0.0 | 3.2 | 0.00 | 0.00 | 0.00 | 92 | 1010.3 |
| 20260506175043 | 27 | 137 | 0.0 | 3.2 | 0.00 | 0.00 | 0.00 | 91 | 1010.4 |
| 20260506174542 | 27 | 140 | 0.0 | 1.6 | 0.00 | 0.00 | 0.00 | 92 | 1010.4 |
| 20260506174042 | 27 | 140 | 0.0 | 1.6 | 0.00 | 0.00 | 0.00 | 92 | 1010.5 |
| 20260506173540 | 27 | 141 | 0.0 | 3.2 | 0.00 | 0.00 | 0.00 | 92 | 1010.5 |
| 20260506173040 | 27 | 141 | 0.0 | 3.2 | 0.00 | 0.00 | 0.00 | 93 | 1010.6 |
| 20260506172538 | 27 | 140 | 0.0 | 1.6 | 0.00 | 0.00 | 0.00 | 93 | 1010.8 |
| 20260506172039 | 26 | 141 | 0.0 | 3.2 | 0.00 | 0.00 | 0.00 | 94 | 1010.8 |
| 20260506171537 | 26 | 144 | 1.6 | 6.4 | 0.00 | 0.00 | 0.00 | 94 | 1010.7 |
| 20260506171039 | 26 | 140 | 1.6 | 6.4 | 0.00 | 0.00 | 0.00 | 94 | 1010.8 |
| 20260506171035 | 26 | 143 | 1.6 | 6.4 | 0.00 | 0.00 | 0.00 | 93 | 1010.8 |
| 20260506170029 | 26 | 144 | 1.6 | 6.4 | 0.00 | 0.00 | 0.00 | 94 | 1010.8 |
| 20260506165522 | 26 | 113 | 0.0 | 6.4 | 0.00 | 0.00 | 0.00 | 95 | 1010.8 |
| 20260506165017 | 26 | 153 | 0.0 | 4.8 | 0.00 | 0.00 | 0.00 | 95 | 1010.8 |
| 20260506164511 | 26 | 153 | 1.6 | 6.4 | 0.00 | 0.00 | 0.00 | 94 | 1010.9 |
| 20260506164241 | 26 | 155 | 1.6 | 8.0 | 0.00 | 0.00 | 0.00 | 93 | 1010.9 |
| 20260506035720 | 25 | 130 | 3.2 | 12.9 | 0.00 | 0.00 | 0.00 | 93 | 1009.0 |
| 20260506035214 | 25 | 132 | 3.2 | 12.9 | 0.00 | 0.00 | 0.00 | 93 | 1009.0 |
| 20260506034708 | 25 | 148 | 1.6 | 11.3 | 0.00 | 0.00 | 0.00 | 93 | 1009.0 |
| 20260506034202 | 25 | 88 | 1.6 | 8.0 | 0.00 | 0.00 | 0.00 | 93 | 1009.0 |
| 20260506033656 | 25 | 146 | 1.6 | 8.0 | 0.00 | 0.00 | 0.00 | 93 | 1009.1 |
| 20260506033150 | 25 | 132 | 3.2 | 16.1 | 0.00 | 0.00 | 0.00 | 93 | 1008.8 |
| 20260506032644 | 25 | 152 | 3.2 | 16.1 | 0.00 | 0.00 | 0.00 | 93 | 1008.6 |
| 20260506032138 | 25 | 130 | 3.2 | 11.3 | 0.00 | 0.00 | 0.00 | 93 | 1008.5 |
| 20260506031631 | 25 | 148 | 3.2 | 14.5 | 0.00 | 0.00 | 0.00 | 93 | 1008.4 |
| 20260506031126 | 25 | 148 | 3.2 | 14.5 | 0.00 | 0.00 | 0.00 | 93 | 1008.4 |
| 20260506030619 | 25 | 145 | 4.8 | 16.1 | 0.00 | 0.00 | 0.00 | 93 | 1008.4 |
| 20260506030114 | 25 | 146 | 4.8 | 16.1 | 0.00 | 0.00 | 0.00 | 92 | 1008.2 |
| 20260506025607 | 25 | 148 | 3.2 | 12.9 | 0.00 | 0.00 | 0.00 | 92 | 1008.3 |
| 20260506025102 | 25 | 115 | 3.2 | 12.9 | 0.00 | 0.00 | 0.00 | 92 | 1008.2 |
| 20260506024555 | 25 | 167 | 3.2 | 16.1 | 0.00 | 0.00 | 0.00 | 92 | 1008.2 |
| 20260506024322 | 25 | 177 | 3.2 | 16.1 | 0.00 | 0.00 | 0.00 | 92 | 1008.2 |
| 20260506023544 | 25 | 191 | 4.8 | 16.1 | 0.00 | 0.00 | 0.00 | 91 | 1008.0 |
| 20260506023037 | 25 | 148 | 4.8 | 16.1 | 0.00 | 0.00 | 0.00 | 91 | 1008.1 |
| 20260506022531 | 25 | 138 | 4.8 | 17.7 | 0.00 | 0.00 | 0.00 | 91 | 1007.9 |
| 20260506022025 | 25 | 140 | 3.2 | 17.7 | 0.00 | 0.00 | 0.00 | 91 | 1007.9 |
| 20260506021524 | 25 | 115 | 3.2 | 16.1 | 0.00 | 0.00 | 0.00 | 91 | 1007.8 |
| 20260506021024 | 25 | 140 | 3.2 | 16.1 | 0.00 | 0.00 | 0.00 | 91 | 1007.8 |
| 20260506020524 | 25 | 146 | 3.2 | 11.3 | 0.00 | 0.00 | 0.00 | 90 | 1007.7 |
| 20260506020254 | 26 | 94 | 1.6 | 11.3 | 0.00 | 0.00 | 0.00 | 90 | 1007.7 |
| 20260506015521 | 26 | 148 | 3.2 | 11.3 | 0.00 | 0.00 | 0.00 | 90 | 1007.7 |
| 20260506015020 | 26 | 154 | 3.2 | 11.3 | 0.00 | 0.00 | 0.00 | 90 | 1007.7 |
| 20260506014520 | 26 | 161 | 3.2 | 12.9 | 0.00 | 0.00 | 0.00 | 90 | 1007.5 |
| 20260506014019 | 26 | 142 | 3.2 | 12.9 | 0.00 | 0.00 | 0.00 | 89 | 1007.4 |
| 20260506013520 | 26 | 173 | 3.2 | 11.3 | 0.00 | 0.00 | 0.00 | 89 | 1007.4 |
| 20260506013018 | 26 | 142 | 1.6 | 11.3 | 0.00 | 0.00 | 0.00 | 89 | 1007.4 |
| 20260506012519 | 26 | 165 | 3.2 | 12.9 | 0.00 | 0.00 | 0.00 | 89 | 1007.5 |
| 20260506012018 | 26 | 147 | 3.2 | 12.9 | 0.00 | 0.00 | 0.00 | 89 | 1007.6 |
| 20260506011516 | 26 | 159 | 4.8 | 19.3 | 0.00 | 0.00 | 0.00 | 88 | 1007.1 |
| 20260506011013 | 26 | 130 | 4.8 | 19.3 | 0.00 | 0.00 | 0.00 | 88 | 1007.0 |
| 20260506010745 | 26 | 156 | 3.2 | 14.5 | 0.00 | 0.00 | 0.00 | 88 | 1007.0 |
| 20260506010014 | 26 | 186 | 4.8 | 14.5 | 0.00 | 0.00 | 0.00 | 88 | 1007.0 |
| 20260506005745 | 26 | 144 | 4.8 | 17.7 | 0.00 | 0.00 | 0.00 | 88 | 1006.9 |
| 20260506005008 | 26 | 159 | 6.4 | 17.7 | 0.00 | 0.00 | 0.00 | 87 | 1006.9 |
| 20260506004502 | 26 | 150 | 3.2 | 14.5 | 0.00 | 0.00 | 0.00 | 87 | 1006.9 |
| 20260506003956 | 26 | 141 | 1.6 | 12.9 | 0.00 | 0.00 | 0.00 | 87 | 1006.9 |
| 20260506003453 | 26 | 148 | 3.2 | 12.9 | 0.00 | 0.00 | 0.00 | 87 | 1006.9 |
| 20260506002953 | 26 | 136 | 1.6 | 12.9 | 0.00 | 0.00 | 0.00 | 87 | 1006.8 |
| 20260506002452 | 26 | 126 | 3.2 | 14.5 | 0.00 | 0.00 | 0.00 | 87 | 1006.7 |
| 20260506002226 | 26 | 155 | 4.8 | 17.7 | 0.00 | 0.00 | 0.00 | 87 | 1006.7 |
| 20260506001453 | 26 | 140 | 4.8 | 17.7 | 0.00 | 0.00 | 0.00 | 86 | 1006.7 |
| 20260506000953 | 26 | 179 | 4.8 | 17.7 | 0.00 | 0.00 | 0.00 | 86 | 1006.8 |
| 20260506000453 | 26 | 161 | 4.8 | 19.3 | 0.00 | 0.00 | 0.00 | 86 | 1006.8 |
| 20260505235954 | 26 | 134 | 4.8 | 19.3 | 0.00 | 0.00 | 0.00 | 86 | 1006.9 |
| 20260505235726 | 26 | 153 | 4.8 | 19.3 | 0.00 | 0.00 | 0.00 | 87 | 1006.8 |
| 20260505234954 | 26 | 138 | 3.2 | 16.1 | 0.00 | 0.00 | 0.00 | 86 | 1006.7 |
| 20260505234455 | 27 | 199 | 4.8 | 19.3 | 0.00 | 0.00 | 0.00 | 86 | 1006.8 |
| 20260505233950 | 27 | 133 | 4.8 | 19.3 | 0.00 | 0.00 | 0.00 | 86 | 1006.7 |
| 20260505233450 | 27 | 134 | 4.8 | 20.9 | 0.00 | 0.00 | 0.00 | 86 | 1006.7 |
| 20260505232950 | 27 | 148 | 4.8 | 20.9 | 0.00 | 0.00 | 0.00 | 85 | 1006.7 |
| 20260505232449 | 27 | 160 | 4.8 | 17.7 | 0.00 | 0.00 | 0.00 | 85 | 1006.7 |
| 20260505231948 | 27 | 171 | 4.8 | 16.1 | 0.00 | 0.00 | 0.00 | 84 | 1006.8 |
| 20260505231449 | 27 | 191 | 3.2 | 14.5 | 0.00 | 0.00 | 0.00 | 85 | 1006.7 |
| 20260505230948 | 27 | 154 | 3.2 | 14.5 | 0.00 | 0.00 | 0.00 | 85 | 1006.6 |
| 20260505230449 | 27 | 179 | 4.8 | 17.7 | 0.00 | 0.00 | 0.00 | 86 | 1006.6 |
| 20260505225950 | 27 | 178 | 4.8 | 17.7 | 0.00 | 0.00 | 0.00 | 85 | 1006.7 |
| 20260505225445 | 27 | 155 | 3.2 | 14.5 | 0.00 | 0.00 | 0.00 | 85 | 1006.8 |
| 20260505224945 | 28 | 132 | 3.2 | 14.5 | 0.00 | 0.00 | 0.00 | 84 | 1006.7 |
| 20260505224718 | 28 | 150 | 3.2 | 16.1 | 0.00 | 0.00 | 0.00 | 84 | 1006.7 |
| 20260505223944 | 28 | 161 | 4.8 | 19.3 | 0.00 | 0.00 | 0.00 | 84 | 1006.7 |
| 20260505223445 | 28 | 136 | 4.8 | 19.3 | 0.00 | 0.00 | 0.00 | 82 | 1006.8 |
| 20260505222946 | 28 | 194 | 3.2 | 12.9 | 0.00 | 0.00 | 0.00 | 82 | 1006.7 |
| 20260505222444 | 28 | 148 | 3.2 | 12.9 | 0.00 | 0.00 | 0.00 | 82 | 1006.7 |
| 20260505221945 | 28 | 213 | 4.8 | 17.7 | 0.00 | 0.00 | 0.00 | 82 | 1006.9 |
| 20260505221446 | 28 | 159 | 4.8 | 20.9 | 0.00 | 0.00 | 0.00 | 82 | 1006.9 |
| 20260505220942 | 28 | 132 | 6.4 | 20.9 | 0.00 | 0.00 | 0.00 | 83 | 1006.9 |
| 20260505220442 | 28 | 219 | 4.8 | 24.1 | 0.00 | 0.00 | 0.00 | 83 | 1006.8 |
| 20260505215942 | 28 | 130 | 3.2 | 24.1 | 0.00 | 0.00 | 0.00 | 82 | 1006.9 |
| 20260505215440 | 28 | 215 | 3.2 | 11.3 | 0.00 | 0.00 | 0.00 | 83 | 1006.9 |
| 20260505214940 | 28 | 163 | 4.8 | 19.3 | 0.00 | 0.00 | 0.00 | 83 | 1007.1 |
| 20260505214440 | 28 | 150 | 4.8 | 19.3 | 0.00 | 0.00 | 0.00 | 83 | 1007.1 |
| 20260505213940 | 28 | 159 | 4.8 | 16.1 | 0.00 | 0.00 | 0.00 | 83 | 1007.2 |
| 20260505213713 | 28 | 163 | 4.8 | 16.1 | 0.00 | 0.00 | 0.00 | 82 | 1007.1 |
| 20260505212942 | 28 | 148 | 4.8 | 22.5 | 0.00 | 0.00 | 0.00 | 82 | 1007.2 |
| 20260505212713 | 28 | 194 | 4.8 | 22.5 | 0.00 | 0.00 | 0.00 | 83 | 1007.2 |
| 20260505211940 | 28 | 140 | 3.2 | 19.3 | 0.00 | 0.00 | 0.00 | 82 | 1007.3 |
| 20260505211440 | 28 | 197 | 3.2 | 19.3 | 0.00 | 0.00 | 0.00 | 83 | 1007.3 |
| 20260505210940 | 28 | 171 | 3.2 | 16.1 | 0.00 | 0.00 | 0.00 | 83 | 1007.4 |
| 20260505210712 | 28 | 197 | 4.8 | 16.1 | 0.00 | 0.00 | 0.00 | 83 | 1007.5 |
| 20260505210210 | 28 | 159 | 4.8 | 19.3 | 0.00 | 0.00 | 0.00 | 83 | 1007.5 |
| 20260505205438 | 28 | 168 | 4.8 | 19.3 | 0.00 | 0.00 | 0.00 | 83 | 1007.6 |
| 20260505204938 | 28 | 162 | 3.2 | 19.3 | 0.00 | 0.00 | 0.00 | 83 | 1007.6 |
| 20260505204437 | 28 | 180 | 3.2 | 12.9 | 0.00 | 0.00 | 0.00 | 83 | 1007.7 |
| 20260505203937 | 28 | 202 | 3.2 | 12.9 | 0.00 | 0.00 | 0.00 | 82 | 1007.9 |
| 20260505203436 | 28 | 201 | 3.2 | 19.3 | 0.00 | 0.00 | 0.00 | 82 | 1007.9 |
| 20260505202936 | 28 | 178 | 3.2 | 19.3 | 0.00 | 0.00 | 0.00 | 81 | 1007.8 |
| 20260505202438 | 28 | 175 | 3.2 | 16.1 | 0.00 | 0.00 | 0.00 | 82 | 1007.9 |
| 20260505202210 | 28 | 190 | 3.2 | 14.5 | 0.00 | 0.00 | 0.00 | 82 | 1008.1 |
| 20260505201430 | 28 | 211 | 3.2 | 14.5 | 0.00 | 0.00 | 0.00 | 83 | 1008.0 |
| 20260505200923 | 28 | 190 | 3.2 | 14.5 | 0.00 | 0.00 | 0.00 | 83 | 1008.1 |
| 20260505200417 | 28 | 195 | 4.8 | 19.3 | 0.00 | 0.00 | 0.00 | 83 | 1008.2 |
| 20260505195911 | 28 | 179 | 4.8 | 19.3 | 0.00 | 0.00 | 0.00 | 82 | 1008.3 |
| 20260505195636 | 28 | 184 | 3.2 | 16.1 | 0.00 | 0.00 | 0.00 | 83 | 1008.3 |
| 20260505194859 | 28 | 213 | 4.8 | 17.7 | 0.00 | 0.00 | 0.00 | 84 | 1008.4 |
| 20260505194357 | 28 | 187 | 4.8 | 17.7 | 0.00 | 0.00 | 0.00 | 85 | 1008.6 |
| 20260505194352 | 28 | 103 | 4.8 | 17.7 | 0.00 | 0.00 | 0.00 | 84 | 1008.6 |